Location: WWIN Observatory
(34.8953°N, 91.9583°W)
Time: 09:23:47
(UTC-06:00)

Daily predictions for brighter satellites

Satellite Brightness Start Highest point End
(mag) Time Altitude Azimuth Time Altitude Azimuth Time Altitude Azimuth
CZ-3B DEB 2.9 17:12:39 10° W 17:15:42 35° NNW 17:22:25 10° NE
NOSS 3-3 (A) 4.5 17:11:19 10° SW 17:17:22 63° WNW 17:23:53 10° NNE
NOSS 3-3 (C) 4.5 17:11:24 10° SW 17:17:28 64° NW 17:24:00 10° NNE
Cosmos 921 Rocket 3.6 17:18:58 10° SSE 17:22:50 36° E 17:26:48 10° NNE
SJ-12 4.0 17:22:04 10° SSE 17:26:05 58° ENE 17:30:08 10° N
Cosmos 1536 Rocket 3.7 17:22:45 10° S 17:27:12 89° WSW 17:31:43 10° N
ATLAS 2AS CENTAUR R/B 3.3 17:21:16 10° NW 17:29:15 75° WSW 17:36:35 10° SSE
Cosmos 494 Rocket 4.2 17:24:23 10° NNW 17:29:38 80° WSW 17:34:53 10° SSE
YAOGAN 1 2.5 17:32:37 10° SSE 17:36:53 63° ENE 17:41:10 10° N
Cosmos 2297 3.7 17:31:47 10° SSW 17:37:24 81° ESE 17:43:03 10° NNE
SPOT 3 Rocket 3.5 17:36:03 10° SSE 17:41:14 81° ENE 17:46:25 10° N
Okean 1 4.0 17:39:46 10° SSW 17:43:45 58° W 17:47:46 10° N
COSMOS 2487 2.4 17:40:58 10° N 17:44:31 64° ENE 17:48:04 10° SSE
Nadezhda 3 Rocket 4.0 17:40:11 10° S 17:46:17 66° E 17:52:29 10° NNE
Cosmos 2278 Rocket 3.6 17:41:50 10° SW 17:47:02 37° WNW 17:52:16 10° N
Cosmos 1346 Rocket 3.0 17:45:38 10° SSW 17:49:30 71° W 17:53:23 10° N
SMAP 3.2 17:46:35 10° S 17:51:13 80° WSW 17:55:53 10° NNW
GRACE-2 4.2 17:50:22 10° SSE 17:53:01 43° E 17:55:40 10° NNE
GRACE-1 4.1 17:50:47 10° SSE 17:53:27 44° E 17:56:07 10° NNE
Cosmos 1666 3.9 17:52:29 10° NNE 17:55:29 21° ENE 17:58:28 10° SE
Genesis I 3.6 17:53:34 10° NW 17:57:28 67° WSW 18:01:19 10° SSE
SL-24 DEB 4.3 17:54:41 10° N 17:59:26 86° W 18:04:05 10° S
Delta 2 Rocket 3.0 17:59:40 10° W 18:03:18 79° N 18:05:38 23° E
SKYMED 2 3.5 17:59:57 10° NNE 18:04:16 65° E 18:08:34 10° S
Cosmos 1833 Rocket 2.7 18:03:13 10° NNW 18:08:47 60° ENE 18:14:18 10° SSE
NOSS 2-1 (D) 4.2 18:05:55 10° SW 18:09:34 45° NW 18:13:17 11° NNE
NOSS 2-1 (C) 4.2 18:06:34 10° SW 18:10:15 46° NW 18:13:56 12° NNE
IDEFIX/ARIANE 42P 3.4 18:05:30 10° S 18:10:33 52° W 18:15:37 10° NNW
Intercosmos 25 2.8 18:09:51 10° N 18:13:01 77° E 18:16:47 10° S
Tiangong 1 2.8 18:11:11 10° WNW 18:13:28 19° N 18:14:01 18° N
Cosmos 1892 Rocket 4.1 18:11:52 10° SSE 18:15:48 35° E 18:17:15 27° NE
Cosmos 2082 Rocket 2.1 18:10:21 10° NNW 18:16:03 83° ENE 18:21:44 10° SSE
Cosmos 1743 2.6 18:13:18 10° N 18:17:10 85° E 18:21:01 10° S
Okean 1-7 Rocket 3.9 18:13:33 10° SSW 18:18:03 68° W 18:22:30 10° N
FALCON 9 R/B 3.9 17:49:22 10° WSW 18:19:25 87° S 18:24:36 24° E
Meteor 1-28 Rocket 3.1 18:21:16 25° NNE 18:23:20 62° E 18:27:04 10° S
Cosmos 1726 Rocket 4.0 18:22:18 10° N 18:26:29 39° E 18:30:39 10° SSE
Cosmos 1484 Rocket 2.9 18:23:37 10° S 18:27:21 71° W 18:31:04 10° NNW
Okean 2 3.4 18:24:34 10° S 18:28:37 56° E 18:30:08 34° NNE
Meteor 2-8 Rocket 4.3 18:29:14 10° S 18:35:15 75° E 18:41:22 10° N
Cosmos 1934 Rocket 3.9 18:29:33 10° N 18:35:47 70° E 18:42:04 10° SSE
Chunghua 1 4.4 18:41:27 10° W 18:45:20 89° SSW 18:45:22 88° ESE
Cosmos 1606 Rocket 3.4 18:41:11 10° N 18:45:41 82° E 18:50:08 10° S
Meteor 1-15 Rocket 4.2 18:39:54 10° N 18:45:45 66° E 18:51:29 10° SSE
Abrixas 4.0 18:44:54 10° NW 18:46:38 31° WNW 18:46:38 31° WNW
Cosmos 2369 Rocket 2.5 18:45:35 10° S 18:50:46 45° ESE 18:50:46 45° ESE
Meteor 1-23 Rocket 4.5 18:45:21 10° SSW 18:51:02 69° W 18:56:40 10° N
COSMO-SKYMED 1 4.2 18:48:20 10° N 18:52:13 33° WNW 18:56:05 10° SW
Meteor 2-9 Rocket 4.1 18:48:19 10° N 18:53:42 82° W 18:59:00 10° S
Meteor 2-4 Rocket 4.3 18:49:51 10° SSW 18:55:04 51° WNW 19:00:16 10° N
Cosmos 2056 Rocket 4.5 18:55:20 10° SW 19:00:29 46° WNW 19:04:14 18° N
Cosmos 407 Rocket 3.7 18:58:26 10° NNW 19:02:23 51° N 19:02:23 51° N
NOAA 12 4.2 18:59:00 10° S 19:04:16 75° WSW 19:09:32 10° NNW
NOSS 3-4 (A) 3.7 18:58:11 10° NNW 19:05:21 83° ENE 19:11:08 19° SSE
NOSS 3-4 (C) 3.7 18:58:18 10° NNW 19:05:27 82° ENE 19:10:59 20° SE
Cosmos 1340 3.9 19:07:16 10° SSW 19:09:53 38° SW 19:09:53 38° SW
BREEZE M DEB (TANK) 4.2 19:11:06 10° NW 19:16:02 59° NE 19:18:05 50° E
Cosmos 1605 Rocket 4.0 19:13:08 10° N 19:19:23 75° W 19:25:31 10° S
ATLAS 3B CENTAUR R/B 3.6 19:02:24 10° W 19:20:30 56° SSW 19:23:21 39° SE
Cosmos 1943 Rocket 4.3 19:18:11 10° S 19:18:47 13° SSE 19:18:47 13° SSE
Gbstr 26 Del rocket 4.4 19:34:22 10° SW 19:42:00 76° S 19:42:00 76° S
